Погода в Черниговском

Россия / Кабардино-Балкарская Республика     43°45′38″N   43°51′13″E
темп.,
°C
ветер,
м/с
пор.,
м/с
влажн.,
%
обл.,
%
осадки,
мм/ч
давл.,
гПа
погр.,
м
14 апреля, ср
ср1400:00+8зсз228944 0.1 101823
03:00+8з2288100 0.1 101813
06:00+8з0185100 0.0 101810
09:00+12сз4563100 0.0 1018753
12:00+14с3355100 0.0 10171371
15:00+15ссз4353100 0.0 10171293
18:00+13ссз3564100 0.0 1018191
21:00+10ссз2274100 0.0 101916
15 апреля, чт
чт1500:00+9з118099 0.0 101811
03:00+8юз22862 0.0 101816
06:00+7зюз11795 0.0 101912
09:00+14юв10585 0.0 1018498
12:00+18с124224 0.0 10171302
15:00+20с223043 0.0 10151885
18:00+17св344764 0.0 101670
21:00+13ссв1163100 0.3 101811
16 апреля, пт
пт1600:00+12с116679 0.0 101710
03:00+10ююз017019 0.0 101710
06:00+10юз007291 0.0 101810
09:00+16вюв23535 0.0 1018487
12:00+19вюв554213 0.0 10161521
15:00+21в663982 0.0 10152025
18:00+17в495446 0.1 1015246
21:00+13сз3374100 1.9 101839
17 апреля, сб
сб1700:00+11сз488990 0.1 1019176
03:00+10сз369592 0.1 1019159
06:00+10ссз4993100 0.0 1021393
09:00+11с4881100 0.0 1022606
12:00+10ссз2385100 0.5 1023380
15:00+10ссз2384100 0.8 1023415
18:00+10ссз1189100 0.4 102485
21:00+9ю0089100 0.4 102422
18 апреля, вс
вс1800:00+9ю239099 0.0 1022102
03:00+9юв1190100 0.0 102124
06:00+9юв1292100 0.0 102181
09:00+10всв2488100 0.2 1021304
12:00+12вюв4578100 0.0 1019633
15:00+15юв4570100 0.1 10181019
18:00+13вюв2281100 0.4 101844
21:00+11в01916 0.7 101910